Klik op de webcam foto voor een grotere versieKlik op de webcam foto voor een grotere versie
Of klik hier voor
de webcam video


Bezoek onze andere website:Website of another weatherstation



No particular awareness of the weather is required.    There are no Weather-warnings

Select another period ( hide this area )

Units Period Custom range Directly to
Metric English Both
Daily Weekly Monthly Yearly
use both date-selectors for a custom range
previous Day
With this date

WeatherUnderground graphs for this period ( click here ) Loading the graph can take up to a minute!


Daily Summary for Wednesday 18 July 2018
Time Temp. ( °C ) Dew pt. ( °C ) Wind ( km/h ) from Gust ( km/h ) Pressure ( hPa ) Humid.( % ) Rainrate ( cm )
High25,1 12,6 11,1 WNW ( 88/204 ) 17,7 1018,8 81 -
Average20,8 11,0 1,9 Calm #63/105 5,0 1018,5 55 -
Low13,8 9,1 -   0,0 1017,8 39 -
Daily Tabular details for Wednesday 18 July 2018
Time Temp. ( °C ) Dew pt. ( °C ) Wind ( km/h ) from Gust ( km/h ) Pressure ( hPa ) Humid.( % ) Rainrate ( cm )
00:04 13,8 10,6   Calm   1018,5 81 -
00:09 13,8 10,6   Calm   1018,5 81 -
00:14 13,8 10,6   Calm   1018,5 81 -
00:19 13,8 10,6   Calm   1018,5 81 -
00:24 13,8 10,6   Calm   1018,5 81 -
00:29 13,8 10,6   Calm   1018,5 81 -
00:34 13,9 10,7   Calm   1018,5 81 -
00:38 14,1 10,9   Calm   1018,5 81 -
00:44 14,3 10,9   Calm   1018,5 80 -
00:49 14,6 11,0   Calm   1018,5 79 -
00:54 14,7 10,9   Calm   1018,5 78 -
00:59 14,9 11,1   Calm   1018,5 78 -
01:04 15,1 11,1   Calm   1018,5 77 -
01:09 15,3 11,3   Calm   1018,5 77 -
01:14 15,6 11,2   Calm   1018,5 75 -
01:19 15,8 11,2   Calm   1018,5 74 -
01:24 16,3 11,7   Calm   1018,5 74 -
01:29 17,3 12,0   Calm   1018,5 71 -
01:34 17,7 11,9   Calm   1018,5 69 -
01:38 18,1 11,9   Calm   1018,5 67 -
01:44 18,2 11,7   Calm   1018,5 66 -
01:49 17,9 11,5   Calm   1018,5 66 -
01:54 17,7 11,7   Calm   1018,5 68 -
01:58 17,6 11,8   Calm   1018,5 69 -
02:04 18,1 11,9   Calm   1018,8 67 -
02:09 18,6 12,1   Calm   1018,8 66 -
02:14 19,1 12,1   Calm   1018,8 64 -
02:19 18,7 11,8   Calm   1018,8 64 -
02:23 19,0 12,5   Calm   1018,8 66 -
02:29 19,7 12,5   Calm   1018,8 63 -
02:34 20,1 12,6   Calm   1018,8 62 -
02:38 20,4 12,4   Calm   1018,8 60 -
02:44 20,8 12,5   Calm   1018,8 59 -
02:49 20,9 12,6   Calm   1018,8 59 -
02:54 21,0 12,4 1,4 ESE 1,6 1018,8 58 -
02:59 21,1 12,5   Calm   1018,8 58 -
03:04 21,2 12,1   Calm   1018,8 56 -
03:09 21,2 12,3   Calm   1018,8 57 -
03:14 21,6 12,2   Calm   1018,8 55 -
03:19 21,7 12,0   Calm 3,2 1018,8 54 -
03:23 21,3 11,9   Calm   1018,8 55 -
03:29 21,3 12,2   Calm   1018,8 56 -
03:34 21,7 12,5   Calm   1018,8 56 -
03:39 22,1 12,4 1,4 ESE 3,2 1018,8 54 -
03:44 21,9 12,2   Calm 1,6 1018,8 54 -
03:49 21,7 12,0   Calm 1,6 1018,8 54 -
03:54 21,7 12,0   Calm 1,6 1018,8 54 -
03:59 21,8 12,1   Calm 1,6 1018,8 54 -
04:04 21,8 11,8 1,4 ESE 1,6 1018,8 53 -
04:09 21,8 11,8   Calm   1018,8 53 -
04:14 21,9 11,6   Calm 1,6 1018,8 52 -
04:19 21,7 11,1 3,2 West 8,0 1018,8 51 -
04:24 21,7 11,4   Calm 3,2 1018,8 52 -
04:29 21,9 11,3 3,2 SE 3,2 1018,8 51 -
04:34 22,1 11,5   Calm 3,2 1018,8 51 -
04:39 22,0 11,4 4,7 West 6,4 1018,5 51 -
04:44 21,8 11,5   Calm 3,2 1018,5 52 -
04:49 21,8 11,5   Calm   1018,5 52 -
04:54 21,9 10,7 4,7 WNW 12,9 1018,5 49 -
04:59 21,9 11,0 7,9 WNW 9,7 1018,8 50 -
05:04 21,8 10,9 4,7 SSE 9,7 1018,5 50 -
05:09 21,9 11,0   Calm 6,4 1018,5 50 -
05:14 22,2 11,3 7,9 SE 9,7 1018,8 50 -
05:19 22,2 11,3 3,2 ENE 11,3 1018,8 50 -
05:24 22,3 11,1 3,2 NW 8,0 1018,8 49 -
05:29 22,5 10,0 9,7 WNW 12,9 1018,8 45 -
05:34 22,3 9,5 3,2 WNW 8,0 1018,5 44 -
05:39 22,6 10,1   Calm 8,0 1018,5 45 -
05:44 22,8 10,2 1,4 ESE 3,2 1018,5 45 -
05:49 22,9 10,0   Calm 6,4 1018,5 44 -
05:54 23,1 9,8 1,4 ESE 6,4 1018,5 43 -
05:59 23,0 9,7 9,7 East 14,5 1018,5 43 -
06:04 22,9 9,7 9,7 WNW 16,1 1018,5 43 -
06:08 22,8 9,6 4,7 WNW 17,7 1018,5 43 -
06:14 22,7 9,8 11,1 WNW 16,1 1018,5 44 -
06:19 22,8 9,9   Calm 17,7 1018,5 44 -
06:24 23,2 10,3   Calm   1018,5 44 -
06:29 23,5 9,8 7,9 West 12,9 1018,5 42 -
06:34 23,4 9,8 6,4 WNW 6,4 1018,5 42 -
06:39 23,3 9,3   Calm 6,4 1018,5 41 -
06:44 23,1 9,5 7,9 WNW 11,3 1018,5 42 -
06:49 23,1 9,1 7,9 WSW 16,1 1018,5 41 -
06:54 23,2 9,6 1,4 West 11,3 1018,5 42 -
06:59 23,4 9,8   Calm 12,9 1018,5 42 -
07:03 23,7 9,7   Calm 1,6 1018,5 41 -
07:09 23,7 9,7   Calm 11,3 1018,2 41 -
07:14 23,8 9,4 6,4 NW 12,9 1018,2 40 -
07:19 23,7 9,7   Calm 8,0 1018,2 41 -
07:24 24,1 10,0 1,4 SSE 9,7 1018,2 41 -
07:29 24,3 9,8 6,4 WNW 17,7 1018,2 40 -
07:34 23,9 9,8 3,2 SSE 14,5 1018,2 41 -
07:39 23,9 10,2 4,7 NE 17,7 1018,2 42 -
07:44 24,1 10,4 7,9 East 8,0 1018,2 42 -
07:49 23,8 9,8 4,7 SSE 8,0 1018,2 41 -
07:54 23,9 10,2 1,4 ENE 6,4 1018,2 42 -
07:59 24,2 10,5 1,4 NNE 8,0 1018,2 42 -
08:04 24,2 10,1 4,7 West 16,1 1018,2 41 -
08:09 24,2 10,5 6,4 West 6,4 1018,2 42 -
08:14 24,8 10,3 1,4 East 16,1 1018,2 40 -
08:19 25,1 10,2 4,7 NW 8,0 1018,2 39 -
08:24 24,9 10,0 7,9 WNW 9,7 1018,2 39 -
08:29 24,9 10,4 3,2 West 12,9 1018,2 40 -
08:34 24,8 10,3 7,9 WNW 8,0 1018,2 40 -
08:39 24,5 10,0   Calm 4,8 1018,2 40 -
08:44 24,7 10,6 1,4 West 3,2 1017,8 41 -
Daily Summary for Wednesday 18 July 2018
Time Temp. ( °C ) Dew pt. ( °C ) Wind ( km/h ) from Gust ( km/h ) Pressure ( hPa ) Humid.( % ) Rainrate ( cm )
High25,1 12,6 11,1 WNW ( 88/204 ) 17,7 1018,8 81 -
Average20,8 11,0 1,9 Calm #63/105 5,0 1018,5 55 -
Low13,8 9,1 -   0,0 1017,8 39 -
Daily Tabular details for Wednesday 18 July 2018
Time Temp. ( °C ) Dew pt. ( °C ) Wind ( km/h ) from Gust ( km/h ) Pressure ( hPa ) Humid.( % ) Rainrate ( cm )
00:04 13,8 10,6   Calm   1018,5 81 -
00:09 13,8 10,6   Calm   1018,5 81 -
00:14 13,8 10,6   Calm   1018,5 81 -
00:19 13,8 10,6   Calm   1018,5 81 -
00:24 13,8 10,6   Calm   1018,5 81 -
00:29 13,8 10,6   Calm   1018,5 81 -
00:34 13,9 10,7   Calm   1018,5 81 -
00:38 14,1 10,9   Calm   1018,5 81 -
00:44 14,3 10,9   Calm   1018,5 80 -
00:49 14,6 11,0   Calm   1018,5 79 -
00:54 14,7 10,9   Calm   1018,5 78 -
00:59 14,9 11,1   Calm   1018,5 78 -
01:04 15,1 11,1   Calm   1018,5 77 -
01:09 15,3 11,3   Calm   1018,5 77 -
01:14 15,6 11,2   Calm   1018,5 75 -
01:19 15,8 11,2   Calm   1018,5 74 -
01:24 16,3 11,7   Calm   1018,5 74 -
01:29 17,3 12,0   Calm   1018,5 71 -
01:34 17,7 11,9   Calm   1018,5 69 -
01:38 18,1 11,9   Calm   1018,5 67 -
01:44 18,2 11,7   Calm   1018,5 66 -
01:49 17,9 11,5   Calm   1018,5 66 -
01:54 17,7 11,7   Calm   1018,5 68 -
01:58 17,6 11,8   Calm   1018,5 69 -
02:04 18,1 11,9   Calm   1018,8 67 -
02:09 18,6 12,1   Calm   1018,8 66 -
02:14 19,1 12,1   Calm   1018,8 64 -
02:19 18,7 11,8   Calm   1018,8 64 -
02:23 19,0 12,5   Calm   1018,8 66 -
02:29 19,7 12,5   Calm   1018,8 63 -
02:34 20,1 12,6   Calm   1018,8 62 -
02:38 20,4 12,4   Calm   1018,8 60 -
02:44 20,8 12,5   Calm   1018,8 59 -
02:49 20,9 12,6   Calm   1018,8 59 -
02:54 21,0 12,4 1,4 ESE 1,6 1018,8 58 -
02:59 21,1 12,5   Calm   1018,8 58 -
03:04 21,2 12,1   Calm   1018,8 56 -
03:09 21,2 12,3   Calm   1018,8 57 -
03:14 21,6 12,2   Calm   1018,8 55 -
03:19 21,7 12,0   Calm 3,2 1018,8 54 -
03:23 21,3 11,9   Calm   1018,8 55 -
03:29 21,3 12,2   Calm   1018,8 56 -
03:34 21,7 12,5   Calm   1018,8 56 -
03:39 22,1 12,4 1,4 ESE 3,2 1018,8 54 -
03:44 21,9 12,2   Calm 1,6 1018,8 54 -
03:49 21,7 12,0   Calm 1,6 1018,8 54 -
03:54 21,7 12,0   Calm 1,6 1018,8 54 -
03:59 21,8 12,1   Calm 1,6 1018,8 54 -
04:04 21,8 11,8 1,4 ESE 1,6 1018,8 53 -
04:09 21,8 11,8   Calm   1018,8 53 -
04:14 21,9 11,6   Calm 1,6 1018,8 52 -
04:19 21,7 11,1 3,2 West 8,0 1018,8 51 -
04:24 21,7 11,4   Calm 3,2 1018,8 52 -
04:29 21,9 11,3 3,2 SE 3,2 1018,8 51 -
04:34 22,1 11,5   Calm 3,2 1018,8 51 -
04:39 22,0 11,4 4,7 West 6,4 1018,5 51 -
04:44 21,8 11,5   Calm 3,2 1018,5 52 -
04:49 21,8 11,5   Calm   1018,5 52 -
04:54 21,9 10,7 4,7 WNW 12,9 1018,5 49 -
04:59 21,9 11,0 7,9 WNW 9,7 1018,8 50 -
05:04 21,8 10,9 4,7 SSE 9,7 1018,5 50 -
05:09 21,9 11,0   Calm 6,4 1018,5 50 -
05:14 22,2 11,3 7,9 SE 9,7 1018,8 50 -
05:19 22,2 11,3 3,2 ENE 11,3 1018,8 50 -
05:24 22,3 11,1 3,2 NW 8,0 1018,8 49 -
05:29 22,5 10,0 9,7 WNW 12,9 1018,8 45 -
05:34 22,3 9,5 3,2 WNW 8,0 1018,5 44 -
05:39 22,6 10,1   Calm 8,0 1018,5 45 -
05:44 22,8 10,2 1,4 ESE 3,2 1018,5 45 -
05:49 22,9 10,0   Calm 6,4 1018,5 44 -
05:54 23,1 9,8 1,4 ESE 6,4 1018,5 43 -
05:59 23,0 9,7 9,7 East 14,5 1018,5 43 -
06:04 22,9 9,7 9,7 WNW 16,1 1018,5 43 -
06:08 22,8 9,6 4,7 WNW 17,7 1018,5 43 -
06:14 22,7 9,8 11,1 WNW 16,1 1018,5 44 -
06:19 22,8 9,9   Calm 17,7 1018,5 44 -
06:24 23,2 10,3   Calm   1018,5 44 -
06:29 23,5 9,8 7,9 West 12,9 1018,5 42 -
06:34 23,4 9,8 6,4 WNW 6,4 1018,5 42 -
06:39 23,3 9,3   Calm 6,4 1018,5 41 -
06:44 23,1 9,5 7,9 WNW 11,3 1018,5 42 -
06:49 23,1 9,1 7,9 WSW 16,1 1018,5 41 -
06:54 23,2 9,6 1,4 West 11,3 1018,5 42 -
06:59 23,4 9,8   Calm 12,9 1018,5 42 -
07:03 23,7 9,7   Calm 1,6 1018,5 41 -
07:09 23,7 9,7   Calm 11,3 1018,2 41 -
07:14 23,8 9,4 6,4 NW 12,9 1018,2 40 -
07:19 23,7 9,7   Calm 8,0 1018,2 41 -
07:24 24,1 10,0 1,4 SSE 9,7 1018,2 41 -
07:29 24,3 9,8 6,4 WNW 17,7 1018,2 40 -
07:34 23,9 9,8 3,2 SSE 14,5 1018,2 41 -
07:39 23,9 10,2 4,7 NE 17,7 1018,2 42 -
07:44 24,1 10,4 7,9 East 8,0 1018,2 42 -
07:49 23,8 9,8 4,7 SSE 8,0 1018,2 41 -
07:54 23,9 10,2 1,4 ENE 6,4 1018,2 42 -
07:59 24,2 10,5 1,4 NNE 8,0 1018,2 42 -
08:04 24,2 10,1 4,7 West 16,1 1018,2 41 -
08:09 24,2 10,5 6,4 West 6,4 1018,2 42 -
08:14 24,8 10,3 1,4 East 16,1 1018,2 40 -
08:19 25,1 10,2 4,7 NW 8,0 1018,2 39 -
08:24 24,9 10,0 7,9 WNW 9,7 1018,2 39 -
08:29 24,9 10,4 3,2 West 12,9 1018,2 40 -
08:34 24,8 10,3 7,9 WNW 8,0 1018,2 40 -
08:39 24,5 10,0   Calm 4,8 1018,2 40 -
08:44 24,7 10,6 1,4 West 3,2 1017,8 41 -

Download your copy of this data-set  here

Our weather-data as stored at Weather Underground. Script developed by Jim McMurry. Adapted for the template by Leuven-Template.eu

You find our weather info also at:

UK Metoffice

WeatherCloud

European Weather Network

Weather Underground

Bernelux Weather Network

AWEKAS

WeatherlinkIP

Citizen Weather Observer Program (CWOP)

HAMweather, WeatherForYou, PWS Weather

Equipment we use:

Weather-station
Davis VUE

Weather-program
Meteobridge

Provider
Robohost

Davis VUE

Meteobridge

Robohost